Погода в Качикатцах

Россия / Республика Саха (Якутия)     61°19′17″N   128°56′57″E
темп.,
°C
ветер,
м/с
пор.,
м/с
влажн.,
%
обл.,
%
осадки,
мм/ч
давл.,
гПа
погр.,
м
27 февраля, сб
сб2700:00−29в229652 0.0 103128
03:00−30в229766 0.0 102924
06:00−29в239594 0.0 102973
09:00−28вюв269597 0.0 1027188
12:00−23в249391 0.0 1026349
15:00−21всв369396 0.0 1021440
18:00−22всв2696100 0.0 1021259
21:00−23всв2697100 0.0 1018276
28 февраля, вс
вс2800:00−24ссв2499100 0.3 1018235
03:00−26ссз2499100 0.6 1016259
06:00−26сз2698100 0.1 1018336
09:00−25зсз4896100 0.3 1019604
12:00−24зсз5895100 0.5 1021799
15:00−25з5995100 0.9 1022795
18:00−26зсз4997100 0.4 1025800
21:00−26зсз3997100 0.6 1026802
1 марта, пн
пн100:00−26з4996100 0.2 1026809
03:00−27з4996100 0.4 1027726
06:00−28з4996100 0.1 1027673
09:00−27з4994100 0.3 1027762
12:00−25зсз4791100 0.2 1027897
15:00−25зсз4791100 0.3 1027984
18:00−26з3896100 0.1 1027606
21:00−27з2897100 0.2 1028443
2 марта, вт
вт200:00−29з2598100 0.1 1027156
03:00−30зюз2499100 0.1 102774
06:00−32зюз2299100 0.0 102835
09:00−31зюз2498100 0.1 1027163
12:00−27з249199 0.0 1026500
15:00−25з238499 0.0 1026744
18:00−31юз0195100 0.0 102519
21:00−33ю119787 0.0 102619
3 марта, ср
ср300:00−34ююз119776 0.0 102619
03:00−34юз009685 0.0 102519
06:00−35зюз0097100 0.0 102519
09:00−32з019799 0.0 102434
12:00−28сз1191100 0.0 1022326
15:00−26сз1288100 0.0 1020537
18:00−28сз1197100 0.0 102019
21:00−29сз2399100 0.1 1020101